Stations météo

Publicité
Figari, France (7780): Température de l'air & dewpoint: 01.07.2020 13:00:00 - 07.07.2020 13:00:00 (CEST)Figari, France (7780): Température de l'air 5cm: 01.07.2020 13:00:00 - 07.07.2020 13:00:00 (CEST)Figari, France (7780): Vitesse du vent & gusts: 01.07.2020 13:00:00 - 07.07.2020 13:00:00 (CEST)Figari, France (7780): Direction du vent: 01.07.2020 13:00:00 - 07.07.2020 13:00:00 (CEST)Figari, France (7780): reduced air pressure: 01.07.2020 13:00:00 - 07.07.2020 13:00:00 (CEST)Figari, France (7780): visibility: 01.07.2020 13:00:00 - 07.07.2020 13:00:00 (CEST)Figari, France (7780): Quantités de précipitations: 01.07.2020 13:00:00 - 07.07.2020 13:00:00 (CEST)
Date & Time tt [°C] td [°C] tt 5cm [°C] ff [km/h] ff [knt] fx [km/h] fx [knt] dd ppp [hPa] vv [km] rr [mm]
07.07.2020 13:00:00 27,5 17,1 37,0 13 7 32 17 SW 1011,2 16 0,0
07.07.2020 12:00:00 27,0 17,5 33,4 16 9 31 17 SSW 1011,0 15 0,0
07.07.2020 11:00:00 26,6 17,4 29,2 16 9 28 15 SSW 1010,5 17 0,0
07.07.2020 10:00:00 25,6 17,3 24,8 17 9 31 17 SSW 1009,9 18 0,0
07.07.2020 09:00:00 25,5 17,2 20,9 13 7 24 13 SSW 1009,2 18 0,0
07.07.2020 08:00:00 23,3 19,0 15,7 9 5 17 9 SW 1008,6 15 0,0
07.07.2020 07:00:00 18,2 17,7 13,9 0 0 5 3 N 1008,3 18 0,0
07.07.2020 06:00:00 15,5 14,5 13,9 3 2 8 4 WNW 1007,7 17 0,0
07.07.2020 05:00:00 16,8 15,7 15,0 5 3 9 5 W 1007,4 12 0,0
07.07.2020 04:00:00 19,5 18,3 17,7 6 4 16 8 SSW 1007,6 12 0,0
07.07.2020 03:00:00 21,2 19,5 20,1 13 7 20 11 SW 1007,8 14 0,0
07.07.2020 02:00:00 22,4 20,1 21,3 12 6 21 12 WSW 1008,2 20 0,0
07.07.2020 01:00:00 22,1 20,2 21,0 16 8 27 15 SW 1008,4 20 0,0
07.07.2020 00:00:00 22,0 19,9 21,3 16 9 36 19 SSW 1008,3 25 0,0
06.07.2020 23:00:00 22,5 20,0 22,0 27 14 43 23 SW 1008,3 26 0,0
06.07.2020 22:00:00 22,4 20,7 22,4 19 10 38 20 SSW 1008,1 24 0,0
06.07.2020 21:00:00 23,1 20,8 23,4 22 12 35 19 S 1007,8 30 0,0
06.07.2020 20:00:00 25,3 19,7 25,0 17 9 35 19 SW 1008,7 38 0,0
06.07.2020 19:00:00 27,4 20,0 27,5 23 12 35 19 SW 1008,8 20 0,0
06.07.2020 18:00:00 31,2 9,4 29,1 28 15 45 25 WSW 1008,9 18 0,0
06.07.2020 17:00:00 31,8 11,0 32,9 34 18 46 25 SW 1008,8 31 0,0
06.07.2020 16:00:00 32,1 10,2 36,2 32 17 46 25 SW 1009,5 34 0,0
06.07.2020 15:00:00 31,6 13,8 39,2 24 13 40 22 SW 1010,0 37 0,0
06.07.2020 14:00:00 29,3 17,2 40,2 19 11 34 18 SW 1010,8 43 0,0
06.07.2020 13:00:00 28,5 20,2 37,3 19 10 31 17 SSW 1011,1 40 0,0
06.07.2020 12:00:00 27,4 20,2 33,9 19 10 31 17 SSW 1011,6 43 0,0
06.07.2020 11:00:00 26,9 20,0 29,2 16 9 29 16 SSW 1011,7 20 0,0
06.07.2020 10:00:00 26,4 19,8 24,6 15 8 29 15 SSW 1012,0 46 0,0
06.07.2020 09:00:00 25,2 19,1 20,5 15 8 26 14 SW 1012,2 43 0,0
06.07.2020 08:00:00 22,7 19,5 15,2 4 2 9 5 WSW 1012,2 34 0,0
06.07.2020 07:00:00 17,0 16,0 13,5 0 0 6 3 N 1012,4 11 0,0
06.07.2020 06:00:00 15,0 14,2 13,1 3 2 9 5 NNE 1012,6 15 0,0
06.07.2020 05:00:00 15,0 14,0 13,2 4 2 7 4 N 1012,7 14 0,0
06.07.2020 04:00:00 16,0 15,0 14,1 4 2 6 3 N 1012,9 15 0,0
06.07.2020 03:00:00 16,8 15,7 15,2 2 1 9 5 WNW 1013,6 20 0,0
06.07.2020 02:00:00 16,8 15,5 15,0 3 1 10 6 N 1014,0 27 0,0
06.07.2020 01:00:00 17,3 15,8 15,6 2 1 6 3 S 1014,4 24 0,0
06.07.2020 00:00:00 18,9 17,4 16,3 4 2 9 5 NNE 1014,6 30 0,0
05.07.2020 23:00:00 19,8 17,4 18,0 3 2 11 6 SW 1014,6 31 0,0
05.07.2020 22:00:00 20,8 18,4 19,9 6 3 14 7 SSE 1014,4 20 0,0
05.07.2020 21:00:00 22,6 18,4 22,6 9 5 23 12 S 1014,2 40 0,0
05.07.2020 20:00:00 25,2 17,7 24,5 12 7 31 17 SSW 1014,1 40 0,0
05.07.2020 19:00:00 28,3 14,9 26,7 16 9 34 18 SSW 1014,2 41 0,0
05.07.2020 18:00:00 30,0 14,1 29,7 23 12 38 21 SW 1014,4 32 0,0
05.07.2020 17:00:00 30,5 12,4 32,9 26 14 39 21 SW 1015,1 32 0,0
05.07.2020 16:00:00 31,0 12,4 36,5 25 13 41 22 SSW 1015,5 16 0,0
05.07.2020 15:00:00 31,0 13,7 39,2 25 14 39 21 SW 1016,0 39 0,0
05.07.2020 14:00:00 30,8 12,7 39,1 24 13 38 20 SW 1016,3 45 0,0
05.07.2020 13:00:00 29,9 14,8 36,7 19 10 30 16 SW 1016,9 49 0,0
05.07.2020 12:00:00 28,5 20,0 33,7 14 8 31 17 SW 1017,3 20 0,0
05.07.2020 11:00:00 26,5 20,3 29,5 18 10 31 17 SSW 1017,8 53 0,0
05.07.2020 10:00:00 26,3 19,7 25,2 16 9 26 14 SSW 1017,6 56 0,0
05.07.2020 09:00:00 25,3 19,7 20,8 13 7 21 12 SSW 1017,6 19 0,0
05.07.2020 08:00:00 23,0 17,9 16,5 4 2 9 5 S 1017,4 39 0,0
05.07.2020 07:00:00 18,5 16,7 14,3 4 2 8 4 NNE 1017,3 35 0,0
05.07.2020 06:00:00 15,9 14,8 14,7 4 2 8 4 NNE 1017,4 25 0,0
05.07.2020 05:00:00 16,9 15,6 15,2 2 1 6 3 N 1017,1 32 0,0
05.07.2020 04:00:00 18,7 16,8 17,3 6 3 16 9 NNW 1016,8 38 0,0
05.07.2020 03:00:00 20,0 16,4 18,1 6 3 23 13 NNW 1016,7 47 0,0
05.07.2020 02:00:00 21,4 17,0 16,4 7 4 24 13 SSW 1017,0 58 0,0
05.07.2020 01:00:00 18,4 16,0 16,4 4 2 14 8 NNW 1016,9 47 0,0
05.07.2020 00:00:00 19,1 16,1 17,2 5 3 14 8 SSW 1016,8 47 0,0
04.07.2020 23:00:00 19,5 16,5 17,8 5 3 9 5 SSE 1016,7 34 0,0
04.07.2020 22:00:00 21,8 16,7 20,3 5 3 12 6 S 1017,0 57 0,0
04.07.2020 21:00:00 24,8 17,5 23,7 8 4 16 8 S 1016,5 20 0,0
04.07.2020 20:00:00 27,5 17,4 26,3 6 4 19 11 SE 1016,0 52 0,0
04.07.2020 19:00:00 28,3 17,5 27,5 9 5 26 14 ESE 1015,8 44 0,0
04.07.2020 18:00:00 29,4 16,6 28,2 13 7 36 19 ENE 1015,5 45 0,0
04.07.2020 17:00:00 30,1 14,6 30,5 19 10 41 22 WNW 1015,1 55 0,0
04.07.2020 16:00:00 31,0 15,8 32,9 21 11 43 23 W 1015,1 37 0,0
04.07.2020 15:00:00 30,9 14,5 39,6 25 13 42 23 SW 1015,4 19 0,0
04.07.2020 14:00:00 30,1 14,2 38,7 22 12 38 20 SW 1016,0 29 0,0
04.07.2020 13:00:00 28,8 15,7 35,7 22 12 38 20 SW 1016,4 29 0,0
04.07.2020 12:00:00 27,7 15,0 33,4 18 10 31 17 WSW 1016,2 20 0,0
04.07.2020 11:00:00 27,2 18,2 29,7 18 10 32 17 SSW 1015,7 16 0,0
04.07.2020 10:00:00 25,7 17,6 24,9 19 11 29 16 SSW 1015,5 18 0,0
04.07.2020 09:00:00 25,2 16,3 20,5 16 9 25 14 SSW 1015,0 20 0,0
04.07.2020 08:00:00 23,1 15,4 17,9 5 3 11 6 WNW 1014,8 20 0,0
04.07.2020 07:00:00 19,5 15,6 17,2 5 3 14 7 WNW 1014,3 32 0,0
04.07.2020 06:00:00 18,0 15,3 17,1 9 5 14 8 S 1013,8 20 0,0
04.07.2020 05:00:00 20,2 15,4 17,0 10 5 19 11 SW 1013,9 30 0,0
04.07.2020 04:00:00 19,8 15,6 16,6 11 6 16 8 WSW 1013,9 31 0,0
04.07.2020 03:00:00 18,5 15,0 16,9 9 5 17 9 SW 1014,3 33 0,0
04.07.2020 02:00:00 20,2 15,0 17,5 13 7 26 14 WSW 1014,7 20 0,0
04.07.2020 01:00:00 20,8 14,7 17,8 10 5 25 14 WSW 1015,5 38 0,0
04.07.2020 00:00:00 21,7 14,6 19,2 18 10 34 19 W 1015,6 42 0,0
03.07.2020 23:00:00 21,9 14,5 19,9 19 10 45 24 W 1015,4 44 0,0
03.07.2020 22:00:00 22,5 14,3 20,8 29 16 49 26 W 1014,5 51 0,0
03.07.2020 21:00:00 22,9 13,1 21,5 30 16 53 29 W 1013,8 54 0,0
03.07.2020 20:00:00 25,0 13,2 23,2 29 16 50 27 W 1013,0 53 0,0
03.07.2020 19:00:00 27,8 12,2 25,5 24 13 45 24 WSW 1012,6 54 0,0
03.07.2020 18:00:00 30,5 11,5 29,0 25 14 44 24 W 1012,4 60 0,0
03.07.2020 17:00:00 30,8 9,1 31,8 27 14 51 28 W 1012,3 20 0,0
03.07.2020 16:00:00 32,2 11,4 35,8 23 12 48 26 WNW 1011,8 44 0,0
03.07.2020 15:00:00 32,7 15,7 39,4 31 17 50 27 W 1012,0 41 0,0
03.07.2020 14:00:00 34,1 14,1 40,1 23 13 51 28 W 1011,9 40 0,0
03.07.2020 13:00:00 33,3 17,1 37,3 26 14 48 26 WSW 1012,2 37 0,0
03.07.2020 12:00:00 32,0 20,6 35,4 27 14 55 30 WSW 1012,2 20 0,0
03.07.2020 11:00:00 29,2 21,2 31,6 29 16 46 25 SSW 1011,7 19 0,0
03.07.2020 10:00:00 29,2 20,4 27,1 27 15 46 25 SW 1011,6 38 0,0
03.07.2020 09:00:00 27,3 20,1 24,1 34 18 48 26 SW 1011,6 37 0,0
03.07.2020 08:00:00 25,9 19,3 21,7 33 18 50 27 SW 1011,4 19 0,0
03.07.2020 07:00:00 24,3 19,4 19,4 30 16 43 23 SW 1011,4 26 0,0
03.07.2020 06:00:00 20,9 18,3 19,3 8 4 20 11 SE 1011,3 25 0,0
03.07.2020 05:00:00 22,1 19,3 20,7 7 4 44 24 S 1011,1 30 0,0
03.07.2020 04:00:00 23,2 19,6 21,8 23 12 40 22 SSW 1010,7 37 0,0
03.07.2020 03:00:00 23,6 19,5 22,1 29 15 47 26 SW 1010,7 32 0,0
03.07.2020 02:00:00 23,9 19,2 22,2 33 18 46 25 SW 1010,7 36 0,0
03.07.2020 01:00:00 24,0 19,7 22,4 25 13 40 22 SSW 1011,2 45 0,0
03.07.2020 00:00:00 24,6 19,2 22,5 26 14 39 21 WSW 1011,5 40 0,0
02.07.2020 23:00:00 24,9 17,9 22,8 24 13 35 19 SW 1011,1 50 0,0
02.07.2020 22:00:00 25,6 17,3 22,8 17 9 29 16 SSW 1011,1 59 0,0
02.07.2020 21:00:00 26,3 18,4 24,4 22 12 42 23 SSW 1010,6 57 0,0
02.07.2020 20:00:00 28,7 18,8 25,8 21 11 46 25 SSW 1010,8 53 0,0
02.07.2020 19:00:00 29,5 19,8 27,9 32 17 50 27 WSW 1010,7 37 0,0
02.07.2020 18:00:00 31,6 20,2 31,0 21 12 43 23 SSW 1010,8 41 0,0
02.07.2020 17:00:00 31,6 20,9 32,8 27 15 40 22 WSW 1010,9 33 0,0
02.07.2020 16:00:00 29,5 21,5 36,5 18 10 31 17 SSW 1011,6 20 0,0
02.07.2020 15:00:00 29,8 21,5 40,0 18 10 37 20 SSW 1011,8 34 0,0
02.07.2020 14:00:00 29,1 21,3 39,2 20 11 33 18 SSW 1012,2 19 0,0
02.07.2020 13:00:00 30,0 20,3 37,7 20 11 33 18 SW 1012,4 37 0,0
02.07.2020 12:00:00 29,1 20,5 33,8 17 9 29 16 SSW 1012,3 36 0,0
02.07.2020 11:00:00 28,4 20,4 29,7 19 10 33 18 SSW 1012,1 35 0,0
02.07.2020 10:00:00 27,9 21,0 25,9 16 9 27 14 SSW 1011,9 31 0,0
02.07.2020 09:00:00 27,2 20,8 22,5 11 6 21 11 SW 1011,7 15 0,0
02.07.2020 08:00:00 24,4 20,7 18,5 4 2 7 4 WSW 1011,7 28 0,0
02.07.2020 07:00:00 20,0 19,2 16,6 3 2 5 3 NE 1011,4 15 0,0
02.07.2020 06:00:00 18,6 17,9 16,7 4 2 6 3 N 1010,9 12 0,0
02.07.2020 05:00:00 19,5 18,3 17,8 4 2 14 8 N 1010,8 14 0,0
02.07.2020 04:00:00 20,5 19,3 18,4 9 5 13 7 NE 1011,1 19 0,0
02.07.2020 03:00:00 20,4 18,9 19,1 5 3 9 5 E 1011,5 17 0,0
02.07.2020 02:00:00 21,9 20,2 21,0 7 4 21 11 E 1011,9 23 0,0
02.07.2020 01:00:00 22,7 20,4 22,2 14 8 29 16 ENE 1011,6 24 0,0
02.07.2020 00:00:00 23,0 20,5 22,4 16 9 33 18 ENE 1011,4 25 0,0
01.07.2020 23:00:00 23,3 20,4 22,7 11 6 31 17 ENE 1011,5 26 0,0
01.07.2020 22:00:00 24,1 20,4 23,5 16 9 31 17 ENE 1011,0 30 0,0
01.07.2020 21:00:00 24,6 19,7 24,2 15 8 32 18 ENE 1011,1 42 0,0
01.07.2020 20:00:00 26,4 19,5 25,9 19 10 40 22 E 1011,0 41 0,0
01.07.2020 19:00:00 28,4 20,2 28,2 18 10 43 23 ENE 1010,6 20 0,0
01.07.2020 18:00:00 30,3 20,8 30,9 18 10 32 18 ENE 1010,8 42 0,0
01.07.2020 17:00:00 31,4 21,0 33,9 16 9 28 15 ENE 1011,4 20 0,0
01.07.2020 16:00:00 31,8 21,0 36,7 15 8 29 16 ENE 1011,8 43 0,0
01.07.2020 15:00:00 31,7 21,2 37,2 16 9 32 17 ENE 1012,0 41 0,0
01.07.2020 14:00:00 31,6 21,5 39,0 14 7 31 17 NE 1012,1 20 0,0
01.07.2020 13:00:00 31,2 21,4 37,7 13 7 28 15 ENE 1012,6 20 0,0

tt = Température de l'air
td = dewpoint
tt 5cm = Température de l'air 5cm
ff = Vitesse du vent
fx = gusts
dd = Direction du vent
ppp = reduced air pressure
vv = visibility
rr = Quantités de précipitations

stations d'obs. à proximité